Cloud_Cover
100 100 59 10 44 16 60 74 92 56 85 100 100 100 100 100 100 100 100 100 100 100 100 100 100 100 100 100 100 100 100 100 100 100 100 100 99 100 100 100 100 100 100 98
72 5 5 19 5 5 5 81 53 60 73 100 100 92 90 100 100 100 100 100 100 100 100 100 100 100 100 100 100 100 100 100 100 100 100 100 100 100 100 100 100 100 100 100
5 5 5 38 35 25 12 30 46 97 98 94 59 95 100 100 100 100 100 100 100 100 100 100 100 100 100 100 100 100 100 100 100 100 100 100 100 100 100 100 100 100 100 100
36 5 51 5 5 5 8 68 100 98 94 97 75 72 100 100 100 100 100 100 100 100 100 100 100 100 100 100 100 100 100 100 100 100 100 100 100 100 100 100 100 100 100 100
79 73 10 53 23 6 75 100 88 100 92 98 68 100 100 100 100 100 100 100 100 100 100 100 100 100 100 100 100 100 100 100 100 100 100 100 100 100 100 100 100 100 100 100
98 90 64 19 9 5 68 92 80 91 100 100 100 100 100 92 92 100 100 100 100 100 100 100 100 100 100 100 100 100 100 100 100 100 100 100 100 100 100 100 100 100 100 100
99 70 4 20 82 5 96 86 100 100 100 100 100 100 100 100 100 100 100 100 100 100 100 100 100 100 100 100 100 100 100 100 100 100 98 99 91 87 99 100 100 100 100 100
95 100 11 27 5 36 30 85 98 100 100 100 100 100 100 100 100 100 100 100 100 100 100 100 100 100 100 100 100 100 100 100 100 100 100 100 98 95 97 93 100 100 100 100
4 3 28 81 67 88 93 100 100 100 100 100 100 100 100 100 100 94 100 100 100 100 100 99 100 100 100 100 100 100 100 93 97 70 92 100 96 95 93 91 100 100 100 100
12 24 35 98 92 91 90 100 100 100 100 100 100 100 100 100 100 100 100 98 100 100 100 100 100 100 100 100 100 100 100 99 99 100 97 98 98 100 100 100 100 100 100 100
100 26 56 99 67 69 86 100 99 99 100 100 100 100 99 96 99 98 100 98 99 100 100 97 97 96 99 100 99 100 98 100 100 99 100 97 96 96 98 100 100 100 100 100
7 5 5 99 95 97 97 86 100 100 100 100 96 64 24 60 100 100 99 97 92 93 99 92 92 98 100 100 99 99 93 99 96 100 100 100 100 85 6 34 88 95 100 100
5 35 62 100 100 100 100 99 87 75 40 100 39 53 5 91 95 100 100 100 100 100 100 99 99 100 100 100 100 100 99 100 100 100 100 100 100 100 100 17 5 7 66 96
5 72 100 89 100 100 100 96 96 72 98 97 72 65 83 96 69 53 89 96 100 98 91 92 93 100 100 100 99 99 100 100 100 100 100 100 100 100 100 100 100 92 70 87
6 92 100 100 69 100 100 100 42 79 80 75 33 64 83 95 100 98 83 82 60 20 5 75 90 88 98 100 100 96 99 100 100 100 100 99 100 100 100 100 100 100 94 39
96 96 100 100 100 100 100 100 74 28 64 8 5 80 84 98 90 69 92 98 97 65 10 94 93 94 95 100 98 100 100 85 85 100 100 100 100 100 100 100 100 100 100 100
84 78 79 100 100 100 100 100 100 86 19 5 13 59 44 67 66 20 20 91 26 5 48 100 100 91 100 99 100 100 100 100 86 100 100 100 100 100 100 100 100 100 100 100
100 76 35 88 100 100 100 100 100 100 99 100 94 49 11 65 100 100 56 24 6 5 41 99 100 100 100 100 99 100 100 100 100 100 100 100 100 100 100 100 100 100 100 100
95 82 66 76 98 99 100 100 100 100 100 100 99 65 84 82 100 90 64 9 96 100 91 100 100 100 100 100 100 100 100 100 100 100 100 100 100 100 100 100 100 100 100 100
98 98 41 76 55 53 70 58 100 100 100 100 100 49 39 31 84 62 9 58 98 100 100 100 100 100 100 98 76 100 100 100 100 100 100 100 100 100 100 100 100 100 100 100
100 100 100 61 7 32 7 71 81 23 89 86 97 100 100 69 37 35 80 97 100 100 100 100 100 100 100 93 97 100 100 100 100 100 100 100 100 100 100 100 100 100 100 100
100 97 74 47 7 6 53 65 82 94 99 100 99 100 64 56 39 18 20 100 100 80 91 100 100 99 94 81 99 100 100 100 100 100 100 100 100 100 100 100 100 100 100 100
96 98 82 85 71 63 81 80 93 48 98 96 100 100 100 95 100 100 98 99 100 99 99 100 99 100 85 100 100 100 100 100 100 100 100 100 100 100 100 100 100 100 100 100
51 59 81 27 6 25 51 67 56 82 80 90 95 100 98 89 60 99 100 43 40 65 88 100 88 80 93 100 100 100 100 100 100 100 100 100 100 100 100 100 100 100 100 100
46 41 5 5 5 6 14 64 5 22 28 34 62 84 100 100 100 100 100 99 57 60 100 41 67 68 100 100 100 100 100 100 100 100 100 100 100 100 100 100 100 100 100 100
96 90 24 31 52 75 6 5 5 59 78 62 50 96 100 100 99 98 100 98 96 59 100 100 99 100 100 100 100 100 100 100 100 100 100 100 100 100 100 100 100 100 100 100
97 62 29 18 93 79 50 41 5 59 95 100 97 100 100 100 96 84 79 100 100 100 100 100 100 97 100 100 100 100 100 100 100 100 100 100 100 100 100 100 100 100 100 100